User: anonymous   Login
Location: Unspecified
(0.0000°N, 0.0000°E)
Time: 04:01:01
(UTC+00:00)
Language:

XMM - Orbit

View from above orbital plane
View from above orbital plane
View from above satellite
View from above satellite

Ground track
Ground track

The orbit data is extracted from the following two-line orbital elements,

1 25989U 99066A   18295.26452573 -.00000048  00000-0  00000+0 0  9994
2 25989  70.5594 341.3584 7877264  95.6485 359.9396  0.50136654 23358
Epoch (UTC): 22 October 2018 06:20:55
Eccentricity: 0.7877264
inclination: 70.5594°
perigee height: 7829 km
apogee height: 113276 km
right ascension of ascending node: 341.3584°
argument of perigee: 95.6485°
revolutions per day: 0.50136654
mean anomaly at epoch: 359.9396°
orbit number at epoch: 2335

The dashed part of the orbit path shows where the satellite is in the earth's shadow,  

DLR